This demonstration page uses our WeatherBlox Daily Observations layout. Learn more.

Left ArrowRight Arrow

39.92423, -83.80882

Hourly Observations for August 16, 2016

Temp ( °F °C ) Dew Point ( °F °C ) Humidity (%) Winds ( mph kmh ) Pressure ( in mb ) Visibility ( mi km ) Precip ( " mm )
1:56 am 01:56 Clear 72 22.2 69 20.6 91 91 S 8 13 30.06 1018 10 16.0934 N/A
2:56 am 02:56 Mostly Clear 71 21.7 69 20.6 94 94 S 7 11 30.06 1018 10 16.0934 N/A
3:56 am 03:56 Mostly Clear 71 21.7 69 20.6 94 94 S 8 13 30.06 1018 10 16.0934 N/A
4:56 am 04:56 Clear 71 21.7 69 20.6 94 94 SSW 7 11 30.06 1018 10 16.0934 N/A
5:56 am 05:56 Partly Cloudy with Light Rain 71 21.7 69 20.6 94 94 S 6 9 30.06 1018 10 16.0934 N/A
6:56 am 06:56 Mostly Cloudy 72 22.2 70 21.1 94 94 SSW 10 17 30.07 1018 10 16.0934 N/A
7:56 am 07:56 Cloudy 72 22.2 71 21.7 97 97 SSW 8 13 30.08 1019 10 16.0934 N/A
8:16 am 08:16 Cloudy 73 23 72 22 94 94 SSW 8 13 30.06 1018 10 16.0934 N/A
8:33 am 08:33 Cloudy 73 23 72 22 94 94 SSW 7 11 30.09 1019 10 16.0934 N/A
8:56 am 08:56 Cloudy with Light Rain 73 22.8 71 21.7 94 94 SSW 8 13 30.08 1019 9 14.48406 N/A
9:56 am 09:56 Cloudy 74 23.3 72 22.2 94 94 SSW 12 19 30.08 1019 10 16.0934 N/A
10:34 am 10:34 Cloudy 75 24 73 23 94 94 SW 13 20 30.09 1019 10 16.0934 N/A
10:56 am 10:56 Cloudy 78 25.6 73 22.8 85 85 SW 14 22 30.08 1019 10 16.0934 N/A
11:10 am 11:10 Cloudy 79 26 73 23 84 84 SSW 14 22 30.09 1019 10 16.0934 N/A
11:56 am 11:56 Cloudy 80 26.7 73 22.8 79 79 SW 13 20 30.08 1019 10 16.0934 N/A
12:56 pm 12:56 Cloudy 80 26.7 72 22.2 76 76 WSW 17 28 30.07 1018 10 16.0934 N/A
1:04 pm 13:04 Cloudy 81 27 72 22 74 74 WSW 17 28 30.03 1017 10 16.0934 N/A
1:56 pm 13:56 Cloudy 76 24.4 73 22.8 91 91 W 15 24 30.09 1019 10 16.0934 N/A
2:13 pm 14:13 Cloudy 75 24 72 22 89 89 W 15 24 30.09 1019 10 16.0934 N/A
2:56 pm 14:56 Cloudy 77 25 72 22.2 85 85 WNW 13 20 30.08 1019 10 16.0934 N/A
3:41 pm 15:41 Mostly Cloudy 79 26 72 22 79 79 W 12 19 30.06 1018 10 16.0934 N/A
3:49 pm 15:49 Mostly Cloudy 75 24 70 21 83 83 WNW 14 22 30.06 1018 10 16.0934 N/A
3:56 pm 15:56 Mostly Cloudy with Rain 74 23.3 71 21.7 91 91 W 9 15 30.07 1018 8 12.87472 N/A
4:56 pm 16:56 Mostly Cloudy 74 23.3 71 21.7 91 91 WSW 9 15 30.07 1018 10 16.0934 N/A
5:56 pm 17:56 Mostly Cloudy 74 23.3 71 21.7 91 91 W 8 13 30.07 1018 10 16.0934 N/A
6:56 pm 18:56 Partly Cloudy 74 23.3 71 21.7 91 91 WSW 6 9 30.08 1019 10 16.0934 N/A
7:37 pm 19:37 Mostly Cloudy 73 23 72 22 94 94 SSW 5 7 30.09 1019 10 16.0934 N/A
7:56 pm 19:56 Cloudy 73 22.8 72 22.2 96 96 SSW 7 11 30.09 1019 10 16.0934 N/A
8:56 pm 20:56 Cloudy with Light Rain 73 22.8 72 22.2 96 96 WSW 7 11 30.11 1020 10 16.0934 N/A
9:11 pm 21:11 Mostly Cloudy 72 22 72 22 100 100 WSW 8 13 30.12 1020 10 16.0934 N/A
9:56 pm 21:56 Clear 72 22.2 71 21.7 97 97 WSW 6 9 30.12 1020 10 16.0934 N/A
10:53 pm 22:53 Mostly Cloudy with Light Rain 72 22 72 22 100 100 WSW 7 11 30.12 1020 10 16.0934 N/A
10:56 pm 22:56 Mostly Cloudy with Light Rain 72 22.2 71 21.7 97 97 WSW 7 11 30.13 1020 10 16.0934 N/A
11:35 pm 23:35 Mostly Clear with Light Rain 72 22 70 21 94 94 SW 8 13 N/A 10 16.0934 N/A
11:56 pm 23:56 Clear 71 21.7 70 21.1 96 96 SW 8 13 30.13 1020 10 16.0934 N/A

Powered by AerisWeather